| time (UTC) | temp F | wind direction | speed MPH | gust MPH | rain 1hr in | rain 24hr in | rain mn in | humidity % | barometer mb |
| 20260507155140 | 53 | 45 | 9.0 | 12.0 | 0.00 | 0.00 | 0.00 | 84 | 1018.8 |
| 20260507154040 | 53 | 39 | 9.0 | 12.0 | 0.00 | 0.00 | 0.00 | 83 | 1018.6 |
| 20260507152939 | 53 | 25 | 10.0 | 14.0 | 0.00 | 0.00 | 0.00 | 82 | 1018.6 |
| 20260507151838 | 53 | 37 | 10.0 | 14.0 | 0.00 | 0.00 | 0.00 | 82 | 1018.6 |
| 20260507150738 | 53 | 56 | 10.0 | 15.0 | 0.00 | 0.00 | 0.00 | 82 | 1018.4 |
| 20260507145637 | 53 | 33 | 9.0 | 13.0 | 0.00 | 0.00 | 0.00 | 82 | 1018.4 |
| 20260507144537 | 53 | 47 | 10.0 | 13.0 | 0.00 | 0.00 | 0.00 | 83 | 1018.5 |
| 20260507143436 | 53 | 54 | 11.0 | 15.0 | 0.00 | 0.00 | 0.00 | 83 | 1018.5 |
| 20260507142335 | 53 | 68 | 11.0 | 16.0 | 0.00 | 0.00 | 0.00 | 83 | 1018.5 |
| 20260507140134 | 54 | 71 | 8.0 | 13.0 | 0.00 | 0.00 | 0.00 | 83 | 1018.1 |
| 20260507135034 | 54 | 64 | 9.0 | 12.0 | 0.00 | 0.00 | 0.00 | 83 | 1017.9 |
| 20260507133933 | 54 | 76 | 10.0 | 10.0 | 0.00 | 0.00 | 0.00 | 83 | 1017.5 |
| 20260507132832 | 54 | 66 | 9.0 | 11.0 | 0.00 | 0.00 | 0.00 | 82 | 1017.6 |
| 20260507131732 | 54 | 75 | 10.0 | 14.0 | 0.00 | 0.00 | 0.00 | 82 | 1017.5 |
| 20260507130631 | 55 | 92 | 10.0 | 13.0 | 0.00 | 0.00 | 0.00 | 82 | 1017.6 |
| 20260507125530 | 55 | 75 | 11.0 | 15.0 | 0.00 | 0.00 | 0.00 | 82 | 1017.4 |
| 20260507124430 | 55 | 73 | 11.0 | 14.0 | 0.00 | 0.00 | 0.00 | 82 | 1017.0 |
| 20260507123330 | 55 | 101 | 10.0 | 13.0 | 0.00 | 0.00 | 0.00 | 82 | 1016.7 |
| 20260507122229 | 54 | 84 | 10.0 | 14.0 | 0.00 | 0.00 | 0.00 | 82 | 1016.5 |
| 20260507121128 | 54 | 107 | 11.0 | 16.0 | 0.00 | 0.00 | 0.00 | 82 | 1016.4 |
| 20260507120027 | 55 | 89 | 12.0 | 19.0 | 0.00 | 0.00 | 0.00 | 81 | 1016.2 |
| 20260507114927 | 55 | 86 | 13.0 | 19.0 | 0.00 | 0.00 | 0.00 | 81 | 1015.9 |
| 20260507113826 | 56 | 83 | 13.0 | 19.0 | 0.00 | 0.00 | 0.00 | 81 | 1015.9 |
| 20260507112726 | 56 | 89 | 10.0 | 15.0 | 0.00 | 0.00 | 0.00 | 81 | 1016.0 |
| 20260507111625 | 57 | 73 | 7.0 | 13.0 | 0.00 | 0.00 | 0.00 | 81 | 1015.5 |
| 20260507110524 | 58 | 114 | 5.0 | 12.0 | 0.00 | 0.00 | 0.00 | 80 | 1015.1 |
| 20260507105424 | 58 | 109 | 13.0 | 23.0 | 0.00 | 0.00 | 0.00 | 80 | 1015.5 |
| 20260507104323 | 57 | 133 | 11.0 | 16.0 | 0.00 | 0.00 | 0.00 | 81 | 1014.2 |
| 20260507103222 | 58 | 135 | 10.0 | 15.0 | 0.00 | 0.00 | 0.00 | 80 | 1014.0 |
| 20260507102123 | 58 | 127 | 9.0 | 14.0 | 0.00 | 0.00 | 0.00 | 79 | 1014.0 |
| 20260507101021 | 59 | 125 | 10.0 | 13.0 | 0.00 | 0.00 | 0.00 | 77 | 1014.0 |
| 20260507095921 | 59 | 114 | 10.0 | 15.0 | 0.00 | 0.00 | 0.00 | 71 | 1014.3 |
| 20260507094820 | 60 | 108 | 9.0 | 14.0 | 0.00 | 0.00 | 0.00 | 65 | 1014.4 |
| 20260507093719 | 61 | 109 | 9.0 | 12.0 | 0.00 | 0.00 | 0.00 | 57 | 1014.2 |
| 20260507092619 | 61 | 117 | 6.0 | 9.0 | 0.00 | 0.00 | 0.00 | 53 | 1014.4 |
| 20260507091518 | 61 | 106 | 6.0 | 9.0 | 0.00 | 0.00 | 0.00 | 51 | 1014.5 |
| 20260507090418 | 62 | 114 | 3.0 | 4.0 | 0.00 | 0.00 | 0.00 | 48 | 1014.3 |
| 20260507085317 | 62 | 114 | 4.0 | 7.0 | 0.00 | 0.00 | 0.00 | 47 | 1014.4 |
| 20260507084217 | 63 | 114 | 4.0 | 6.0 | 0.00 | 0.00 | 0.00 | 47 | 1014.4 |
| 20260507083116 | 62 | 129 | 6.0 | 8.0 | 0.00 | 0.00 | 0.00 | 48 | 1014.5 |
| 20260507082015 | 62 | 112 | 8.0 | 11.0 | 0.00 | 0.00 | 0.00 | 48 | 1014.6 |
| 20260507080914 | 63 | 120 | 5.0 | 7.0 | 0.00 | 0.00 | 0.00 | 48 | 1014.6 |
| 20260507075814 | 64 | 115 | 5.0 | 7.0 | 0.00 | 0.00 | 0.00 | 47 | 1014.8 |
| 20260507074713 | 65 | 125 | 4.0 | 8.0 | 0.00 | 0.00 | 0.00 | 45 | 1014.8 |
| 20260507073613 | 65 | 149 | 4.0 | 9.0 | 0.00 | 0.00 | 0.00 | 44 | 1014.5 |
| 20260507072512 | 65 | 166 | 5.0 | 9.0 | 0.00 | 0.00 | 0.00 | 43 | 1014.1 |
| 20260507071411 | 65 | 168 | 5.0 | 10.0 | 0.00 | 0.00 | 0.00 | 43 | 1014.1 |
| 20260507070311 | 65 | 164 | 5.0 | 7.0 | 0.00 | 0.00 | 0.00 | 45 | 1014.2 |
| 20260507065210 | 65 | 172 | 5.0 | 9.0 | 0.00 | 0.00 | 0.00 | 44 | 1014.1 |
| 20260507064110 | 65 | 175 | 7.0 | 13.0 | 0.00 | 0.00 | 0.00 | 46 | 1014.2 |
| 20260507063009 | 66 | 156 | 4.0 | 8.0 | 0.00 | 0.00 | 0.00 | 47 | 1014.1 |
| 20260507061908 | 66 | 156 | 5.0 | 11.0 | 0.00 | 0.00 | 0.00 | 50 | 1013.9 |
| 20260507060808 | 66 | 129 | 6.0 | 11.0 | 0.00 | 0.00 | 0.00 | 55 | 1013.8 |
| 20260507055708 | 66 | 137 | 6.0 | 11.0 | 0.00 | 0.00 | 0.00 | 55 | 1013.7 |
| 20260507054607 | 66 | 141 | 7.0 | 13.0 | 0.00 | 0.00 | 0.00 | 55 | 1013.7 |
| 20260507053506 | 66 | 132 | 7.0 | 12.0 | 0.00 | 0.00 | 0.00 | 55 | 1013.5 |
| 20260507052405 | 67 | 146 | 6.0 | 11.0 | 0.00 | 0.00 | 0.00 | 55 | 1013.5 |
| 20260507051305 | 67 | 141 | 5.0 | 10.0 | 0.00 | 0.00 | 0.00 | 55 | 1013.5 |
| 20260507050204 | 67 | 137 | 7.0 | 11.0 | 0.00 | 0.00 | 0.00 | 54 | 1013.3 |
| 20260507045104 | 68 | 137 | 8.0 | 13.0 | 0.00 | 0.00 | 0.00 | 52 | 1013.2 |
| 20260507044003 | 68 | 137 | 6.0 | 13.0 | 0.00 | 0.00 | 0.00 | 51 | 1012.9 |
| 20260507042902 | 69 | 143 | 7.0 | 14.0 | 0.00 | 0.00 | 0.00 | 49 | 1013.0 |
| 20260507041802 | 69 | 146 | 6.0 | 13.0 | 0.00 | 0.00 | 0.00 | 47 | 1013.0 |
| 20260507040701 | 69 | 141 | 8.0 | 12.0 | 0.00 | 0.00 | 0.00 | 44 | 1012.9 |
| 20260507035600 | 69 | 125 | 7.0 | 12.0 | 0.00 | 0.00 | 0.00 | 43 | 1012.6 |
| 20260507034500 | 70 | 142 | 8.0 | 13.0 | 0.00 | 0.00 | 0.00 | 38 | 1012.5 |
| 20260507033359 | 70 | 151 | 8.0 | 12.0 | 0.00 | 0.00 | 0.00 | 35 | 1012.4 |
| 20260507032258 | 71 | 142 | 8.0 | 13.0 | 0.00 | 0.00 | 0.00 | 34 | 1012.5 |
| 20260507031158 | 71 | 150 | 7.0 | 14.0 | 0.00 | 0.00 | 0.00 | 33 | 1012.5 |
| 20260507030057 | 71 | 139 | 8.0 | 16.0 | 0.00 | 0.00 | 0.00 | 32 | 1012.2 |
| 20260507024957 | 71 | 141 | 7.0 | 12.0 | 0.00 | 0.00 | 0.00 | 33 | 1012.2 |
| 20260507023856 | 71 | 147 | 6.0 | 10.0 | 0.00 | 0.00 | 0.00 | 33 | 1012.0 |
| 20260507022756 | 71 | 129 | 9.0 | 13.0 | 0.00 | 0.00 | 0.00 | 33 | 1012.0 |
| 20260507021655 | 71 | 132 | 8.0 | 11.0 | 0.00 | 0.00 | 0.00 | 34 | 1011.6 |
| 20260507020554 | 71 | 129 | 9.0 | 12.0 | 0.00 | 0.00 | 0.00 | 34 | 1011.5 |
| 20260507015454 | 72 | 128 | 9.0 | 11.0 | 0.00 | 0.00 | 0.00 | 34 | 1011.3 |
| 20260507014353 | 72 | 127 | 8.0 | 11.0 | 0.00 | 0.00 | 0.00 | 33 | 1011.2 |
| 20260507013252 | 73 | 141 | 9.0 | 13.0 | 0.00 | 0.00 | 0.00 | 32 | 1011.1 |
| 20260507012152 | 74 | 126 | 8.0 | 11.0 | 0.00 | 0.00 | 0.00 | 31 | 1010.9 |
| 20260507011051 | 74 | 122 | 8.0 | 14.0 | 0.00 | 0.00 | 0.00 | 31 | 1010.7 |
| 20260507005950 | 75 | 124 | 7.0 | 11.0 | 0.00 | 0.00 | 0.00 | 31 | 1010.7 |
| 20260507004850 | 75 | 125 | 8.0 | 12.0 | 0.00 | 0.00 | 0.00 | 31 | 1010.7 |
| 20260507003749 | 75 | 129 | 7.0 | 10.0 | 0.00 | 0.00 | 0.00 | 31 | 1010.6 |
| 20260507002649 | 75 | 125 | 7.0 | 10.0 | 0.00 | 0.00 | 0.00 | 31 | 1010.5 |
| 20260507001548 | 75 | 119 | 8.0 | 11.0 | 0.00 | 0.00 | 0.00 | 30 | 1010.6 |
| 20260507000450 | 75 | 112 | 9.0 | 14.0 | 0.00 | 0.00 | 0.00 | 29 | 1010.5 |
| 20260506235347 | 76 | 109 | 8.0 | 13.0 | 0.00 | 0.00 | 0.00 | 29 | 1010.5 |
| 20260506234246 | 76 | 102 | 9.0 | 11.0 | 0.00 | 0.00 | 0.00 | 29 | 1010.6 |
| 20260506233146 | 77 | 84 | 10.0 | 14.0 | 0.00 | 0.00 | 0.00 | 29 | 1010.7 |
| 20260506232045 | 77 | 48 | 12.0 | 17.0 | 0.00 | 0.00 | 0.00 | 28 | 1010.6 |
| 20260506230944 | 77 | 77 | 9.0 | 14.0 | 0.00 | 0.00 | 0.00 | 29 | 1010.6 |
| 20260506225844 | 78 | 81 | 8.0 | 13.0 | 0.00 | 0.00 | 0.00 | 28 | 1010.5 |
| 20260506224743 | 78 | 73 | 9.0 | 15.0 | 0.00 | 0.00 | 0.00 | 28 | 1010.5 |
| 20260506223642 | 78 | 71 | 7.0 | 12.0 | 0.00 | 0.00 | 0.00 | 27 | 1010.4 |
| 20260506222542 | 77 | 67 | 8.0 | 12.0 | 0.00 | 0.00 | 0.00 | 28 | 1010.4 |
| 20260506221441 | 77 | 84 | 10.0 | 13.0 | 0.00 | 0.00 | 0.00 | 28 | 1010.4 |
| 20260506220341 | 78 | 58 | 6.0 | 12.0 | 0.00 | 0.00 | 0.00 | 28 | 1010.5 |
| 20260506215240 | 79 | 23 | 7.0 | 10.0 | 0.00 | 0.00 | 0.00 | 27 | 1010.4 |
| 20260506214139 | 79 | 60 | 7.0 | 10.0 | 0.00 | 0.00 | 0.00 | 28 | 1010.4 |
| 20260506213039 | 78 | 66 | 7.0 | 11.0 | 0.00 | 0.00 | 0.00 | 28 | 1010.4 |
| 20260506211938 | 79 | 20 | 5.0 | 14.0 | 0.00 | 0.00 | 0.00 | 27 | 1010.6 |
| 20260506210838 | 78 | 247 | 4.0 | 9.0 | 0.00 | 0.00 | 0.00 | 28 | 1010.9 |
| 20260506205737 | 78 | 354 | 8.0 | 12.0 | 0.00 | 0.00 | 0.00 | 28 | 1011.0 |
| 20260506204636 | 79 | 70 | 9.0 | 15.0 | 0.00 | 0.00 | 0.00 | 27 | 1011.0 |
| 20260506203536 | 80 | 70 | 7.0 | 15.0 | 0.00 | 0.00 | 0.00 | 28 | 1011.1 |
| 20260506202435 | 79 | 314 | 3.0 | 11.0 | 0.00 | 0.00 | 0.00 | 26 | 1011.3 |
| 20260506201334 | 77 | 314 | 6.0 | 13.0 | 0.00 | 0.00 | 0.00 | 27 | 1011.4 |
| 20260506200234 | 79 | 339 | 5.0 | 12.0 | 0.00 | 0.00 | 0.00 | 26 | 1011.5 |
| 20260506195133 | 78 | 11 | 6.0 | 12.0 | 0.00 | 0.00 | 0.00 | 29 | 1011.5 |
| 20260506194033 | 77 | 39 | 7.0 | 15.0 | 0.00 | 0.00 | 0.00 | 29 | 1011.6 |
| 20260506192932 | 76 | 85 | 9.0 | 18.0 | 0.00 | 0.00 | 0.00 | 30 | 1011.6 |
| 20260506191831 | 77 | 58 | 7.0 | 16.0 | 0.00 | 0.00 | 0.00 | 31 | 1011.7 |
| 20260506190731 | 77 | 23 | 7.0 | 11.0 | 0.00 | 0.00 | 0.00 | 29 | 1011.9 |
| 20260506185630 | 77 | 43 | 5.0 | 5.0 | 0.00 | 0.00 | 0.00 | 27 | 1012.0 |
| 20260506184529 | 77 | 60 | 5.0 | 12.0 | 0.00 | 0.00 | 0.00 | 31 | 1012.3 |
| 20260506183429 | 75 | 300 | 5.0 | 9.0 | 0.00 | 0.00 | 0.00 | 31 | 1012.4 |
| 20260506182328 | 75 | 325 | 7.0 | 14.0 | 0.00 | 0.00 | 0.00 | 30 | 1012.4 |
| 20260506181228 | 75 | 332 | 7.0 | 9.0 | 0.00 | 0.00 | 0.00 | 31 | 1012.3 |
| 20260506180127 | 75 | 327 | 6.0 | 13.0 | 0.00 | 0.00 | 0.00 | 27 | 1012.4 |
| 20260506175026 | 75 | 345 | 8.0 | 9.0 | 0.00 | 0.00 | 0.00 | 28 | 1012.4 |
| 20260506173926 | 74 | 303 | 11.0 | 16.0 | 0.00 | 0.00 | 0.00 | 24 | 1012.5 |
| 20260506172825 | 74 | 318 | 12.0 | 18.0 | 0.00 | 0.00 | 0.00 | 24 | 1012.6 |
| 20260506171725 | 74 | 285 | 11.0 | 15.0 | 0.00 | 0.00 | 0.00 | 25 | 1012.6 |
| 20260506170624 | 73 | 310 | 12.0 | 16.0 | 0.00 | 0.00 | 0.00 | 24 | 1012.6 |
| 20260506165523 | 73 | 314 | 13.0 | 19.0 | 0.00 | 0.00 | 0.00 | 25 | 1012.7 |
| 20260506164423 | 73 | 319 | 12.0 | 18.0 | 0.00 | 0.00 | 0.00 | 25 | 1012.8 |
| 20260506163322 | 72 | 324 | 13.0 | 17.0 | 0.00 | 0.00 | 0.00 | 25 | 1012.6 |
| 20260506162221 | 72 | 311 | 13.0 | 18.0 | 0.00 | 0.00 | 0.00 | 25 | 1012.4 |
| 20260506161121 | 71 | 313 | 12.0 | 15.0 | 0.00 | 0.00 | 0.00 | 26 | 1012.3 |
| 20260506160021 | 71 | 318 | 10.0 | 14.0 | 0.00 | 0.00 | 0.00 | 29 | 1012.3 |